[[{"header":{"parameterUnit":"m.s-1","parameterCategory":1,"la1":30.2991,"la2":30.254,"lo1":-89.0895,"lo2":-89.0444,"dy":0.0017,"dx":0.0017,"nx":28,"ny":28,"refTime":"2025-09-04T03:00:00:Z","depth":0,"parameterNumber":2,"parameterNumberName":"U-component_of_WINDS"},"data":[0,0,0,0,0,0,0,0,0,0,0,0,0,0,0,0,0,0,0,0,0,0,0,0,0,0,0,0,0,0,0,0,0,0,0,0,0,0,0,0,0,0,0,0,0,0,0,0,0,0,0,0,0,0,0,0,0,0,1.3604,1.3604,0,1.3567,1.3566,1.3566,1.3508,1.3507,1.3506,1.3505,1.3467,1.3467,1.3467,0,0,0,0,0,0,0,0,0,0,0,0,0,1.3623,1.3623,1.3604,1.3604,1.3603,1.3567,1.3566,1.3566,1.3508,1.3507,1.3506,1.3505,1.3467,1.3467,1.3467,0,0,0,0,0,0,0,0,0,0,0,0,0,1.3603,1.3623,1.3604,1.357,1.3567,1.3567,1.3566,1.3565,1.3509,1.3507,1.3506,1.3504,1.3467,1.3467,1.3467,1.3497,0,0,1.3466,1.3466,0,0,0,0,0,0,0,0,1.3605,1.3603,1.3576,1.3573,1.3569,1.354,1.3559,1.3542,1.3509,1.3531,1.3505,1.3503,1.3492,1.349,1.3487,1.3495,1.3493,1.3466,1.3466,1.3466,1.3466,0,0,0,0,0,0,0,1.3606,1.3604,1.3589,1.3575,1.3571,1.3556,1.3551,1.3555,1.3521,1.3529,1.3524,1.3521,1.349,1.3487,1.3485,1.3493,1.3466,1.3466,1.3466,1.3466,1.3519,1.3521,0,0,0,0,0,0,1.3613,1.3606,1.359,1.3588,1.3583,1.3557,1.3552,1.3551,1.352,1.3514,1.3522,1.3518,1.3488,1.3485,1.3484,1.3514,1.3466,1.3466,1.3466,1.3518,1.352,1.3521,0,0,0,0,0,0,1.3613,1.3612,1.3592,1.3596,1.3592,1.3558,1.3558,1.3551,1.3547,1.3516,1.3509,1.3525,1.3486,1.3484,1.3493,1.3512,1.3466,1.3466,1.3516,1.3519,1.3521,1.3576,0,0,0,0,0,0,1.3614,1.3613,1.3624,1.3596,1.3592,1.3603,1.3559,1.3552,1.3548,1.3542,1.3516,1.3511,1.3485,1.3493,1.3493,1.3511,1.3466,1.3514,1.3517,1.352,1.3573,1.358,1.3587,0,0,0,0,0,1.3615,1.3643,1.3625,1.3624,1.3606,1.3604,1.3601,1.3571,1.3549,1.356,1.3539,1.3512,1.351,1.3495,1.3494,1.3512,1.3513,1.3516,1.352,1.357,1.3579,1.3587,0,0,0,0,0,0,1.3674,1.3638,1.3619,1.3638,1.3624,1.3594,1.3607,1.3583,1.3575,1.357,1.3533,1.3528,1.3541,1.3527,1.3511,1.3537,1.3507,1.351,1.3545,1.3554,1.3561,1.3563,1.3466,0,0,0,0,0,1.369,1.3691,1.366,1.368,1.3674,1.3642,1.364,1.3617,1.3602,1.3596,1.3575,1.3561,1.3557,1.3555,1.355,1.3571,1.3563,1.3583,1.359,1.3596,1.3598,1.3605,1.3612,1.3532,1.3532,1.3532,0,0,1.3721,1.3702,1.3705,1.3691,1.3678,1.3679,1.3637,1.3642,1.3641,1.3596,1.3603,1.3587,1.3568,1.3583,1.3588,1.3572,1.3619,1.36,1.3605,1.3604,1.3609,1.3617,1.3623,1.3535,1.3534,1.3534,0,0,1.3779,1.3766,1.3779,1.3766,1.3746,1.3724,1.3728,1.37,1.3688,1.3694,1.3659,1.3658,1.3653,1.364,1.3633,1.3682,1.3655,1.3682,1.3718,1.3725,1.3731,1.3736,1.3751,1.3757,1.3685,1.3685,1.3685,0,1.3821,1.3822,1.3789,1.3794,1.3787,1.3746,1.3758,1.3747,1.3727,1.3723,1.3705,1.3695,1.368,1.3689,1.37,1.3697,1.3697,1.3684,1.3733,1.3738,1.3742,1.3756,1.3762,1.3688,1.3688,1.3687,1.3687,0,1.3872,1.3873,1.3887,1.3866,1.3861,1.387,1.3838,1.3836,1.3814,1.3794,1.3798,1.3778,1.3766,1.3767,1.3746,1.3772,1.3763,1.374,1.3708,1.3754,1.3765,1.3771,1.3693,1.3691,1.369,1.369,0,0,1.3967,1.3927,1.3932,1.3921,1.3895,1.3894,1.39,1.3888,1.3886,1.3873,1.3875,1.387,1.3848,1.3839,1.3816,1.3823,1.3859,1.3798,1.3797,1.3808,1.3883,1.3899,1.3906,1.3842,1.3843,1.3844,1.3884,0,1.4017,1.4025,1.3994,1.4009,1.4008,1.3967,1.3972,1.3956,1.3936,1.3932,1.391,1.3906,1.3878,1.3872,1.3877,1.3854,1.3873,1.3851,1.3842,1.3842,1.3846,1.3913,1.393,1.3969,1.3889,1.3889,1.389,0,1.4077,1.4066,1.408,1.405,1.4048,1.4053,1.4038,1.4035,1.4014,1.3999,1.3989,1.3962,1.3963,1.3934,1.3935,1.392,1.3914,1.3902,1.3903,1.3899,1.3867,1.3908,1.3981,1.3986,1.3898,1.3897,1.3897,0,1.4141,1.4129,1.4135,1.4128,1.4094,1.4097,1.4083,1.4061,1.4055,1.4042,1.4036,1.4024,1.4017,1.4007,1.3976,1.3958,1.3979,1.3948,1.3965,1.3965,1.397,1.397,1.404,1.397,1.397,1.397,1.397,0,1.4199,1.4209,1.4163,1.4167,1.4175,1.414,1.4149,1.4131,1.4112,1.411,1.4075,1.4074,1.4034,1.4028,1.4004,1.4006,1.4004,1.3991,1.3984,1.3992,1.3994,1.3987,1.3983,1.3972,1.3971,1.3971,1.3971,0,1.4271,1.4241,1.4245,1.4212,1.4203,1.4211,1.4182,1.4183,1.4161,1.4159,1.4156,1.4121,1.4112,1.408,1.4064,1.4048,1.4056,1.4045,1.4063,1.4058,1.4076,1.4073,1.4142,1.4148,1.4077,1.4078,1.4079,0,1.4309,1.4315,1.4282,1.4278,1.4265,1.426,1.4253,1.4217,1.4211,1.4186,1.419,1.4178,1.4166,1.4153,1.4126,1.4112,1.4098,1.4123,1.4096,1.4103,1.4095,1.4094,1.4093,1.4129,1.413,1.413,1.4131,0,1.4379,1.4363,1.4354,1.4339,1.4331,1.4318,1.4302,1.4301,1.4261,1.4255,1.4245,1.4236,1.4218,1.4205,1.4187,1.4171,1.4144,1.414,1.4142,1.4151,1.416,1.4152,1.4077,1.4138,1.4138,1.4137,1.4137,1.4136,1.4433,1.4435,1.4411,1.4402,1.4386,1.4372,1.437,1.4347,1.4338,1.432,1.43,1.4291,1.4268,1.424,1.4226,1.4217,1.4203,1.4208,1.4208,1.4209,1.4212,1.4163,1.4214,1.4214,1.4214,1.4214,1.4214,0,1.4498,1.448,1.4472,1.445,1.4442,1.4417,1.4398,1.4392,1.4385,1.4366,1.4354,1.4341,1.4328,1.4299,1.4283,1.4282,1.4268,1.4278,1.4277,1.4273,1.4228,1.4226,1.4289,1.4289,1.4289,1.4289,1.4289,1.4289,1.4531,1.4533,1.4514,1.4506,1.4488,1.4479,1.447,1.4455,1.4439,1.4426,1.4415,1.4396,1.4371,1.4353,1.4339,1.4331,1.4325,1.4339,1.4326,1.4284,1.4277,1.427,1.4268,1.4339,1.4339,1.4372,1.4372,1.4372]},{"header":{"parameterUnit":"m.s-1","parameterCategory":1,"la1":30.2991,"la2":30.254,"lo1":-89.0895,"lo2":-89.0444,"dy":0.0017,"dx":0.0017,"nx":28,"ny":28,"refTime":"2025-09-04T03:00:00:Z","depth":0,"parameterNumber":3,"parameterNumberName":"V-component_of_WINDS"},"data":[0,0,0,0,0,0,0,0,0,0,0,0,0,0,0,0,0,0,0,0,0,0,0,0,0,0,0,0,0,0,0,0,0,0,0,0,0,0,0,0,0,0,0,0,0,0,0,0,0,0,0,0,0,0,0,0,0,0,3.4895,3.4895,0,3.4935,3.4936,3.4936,3.4903,3.4902,3.4901,3.4899,3.4937,3.4939,3.4941,0,0,0,0,0,0,0,0,0,0,0,0,0,3.4784,3.4787,3.4895,3.4895,3.4896,3.4935,3.4936,3.4936,3.4904,3.4902,3.49,3.4899,3.4936,3.4939,3.4942,0,0,0,0,0,0,0,0,0,0,0,0,0,3.4829,3.4787,3.4895,3.4884,3.4884,3.4935,3.4936,3.4936,3.4904,3.4902,3.49,3.4898,3.4935,3.4939,3.4942,3.5004,0,0,3.4952,3.4954,0,0,0,0,0,0,0,0,3.4827,3.4833,3.4885,3.4885,3.4885,3.4912,3.491,3.4959,3.4904,3.4896,3.4899,3.4897,3.493,3.4934,3.4946,3.5006,3.5008,3.4953,3.4955,3.4956,3.4957,0,0,0,0,0,0,0,3.4824,3.4831,3.4911,3.4886,3.4886,3.4876,3.488,3.4919,3.4924,3.4897,3.4894,3.49,3.4929,3.4943,3.4946,3.5008,3.4953,3.4956,3.4958,3.4959,3.5118,3.512,0,0,0,0,0,0,3.4822,3.4829,3.4909,3.4912,3.485,3.488,3.4884,3.4905,3.4924,3.4924,3.4902,3.4898,3.4938,3.4942,3.4948,3.5019,3.4956,3.4959,3.4961,3.5116,3.5119,3.5121,0,0,0,0,0,0,3.482,3.483,3.4908,3.487,3.4879,3.4884,3.4908,3.4907,3.492,3.4927,3.4927,3.4914,3.4936,3.4943,3.499,3.502,3.4961,3.4964,3.5114,3.5117,3.512,3.5165,0,0,0,0,0,0,3.4817,3.4829,3.4854,3.4871,3.4881,3.4951,3.491,3.4909,3.4927,3.4923,3.4939,3.494,3.4935,3.4985,3.4993,3.5024,3.4967,3.5111,3.5115,3.5119,3.5161,3.5169,3.5177,0,0,0,0,0,3.4813,3.4865,3.4856,3.4866,3.4913,3.4953,3.4959,3.4953,3.4929,3.4953,3.4957,3.494,3.5016,3.499,3.4999,3.5031,3.5109,3.5114,3.5119,3.5157,3.5168,3.5177,0,0,0,0,0,0,3.4851,3.4867,3.4857,3.4916,3.4934,3.4947,3.4978,3.4965,3.4988,3.4983,3.4974,3.4978,3.5027,3.5034,3.5005,3.5091,3.5058,3.5065,3.5085,3.5095,3.5102,3.5099,3.497,0,0,0,0,0,3.4867,3.4899,3.4911,3.4962,3.4971,3.4973,3.499,3.4984,3.5002,3.5008,3.5016,3.5032,3.5059,3.5078,3.5104,3.5162,3.5164,3.5188,3.5196,3.5203,3.5208,3.5237,3.5247,3.5137,3.5137,3.5137,0,0,3.4899,3.4911,3.4932,3.497,3.4983,3.5015,3.498,3.5016,3.5038,3.5014,3.5058,3.5064,3.5082,3.5134,3.5157,3.5141,3.5239,3.5209,3.5214,3.5216,3.5243,3.5253,3.5263,3.5141,3.514,3.5139,0,0,3.4973,3.4987,3.503,3.5043,3.5063,3.5064,3.5074,3.509,3.5093,3.5138,3.5119,3.5145,3.5194,3.5206,3.5218,3.5295,3.5279,3.5304,3.5345,3.5373,3.5382,3.5389,3.5414,3.5424,3.531,3.531,3.531,0,3.5009,3.5058,3.5053,3.509,3.5105,3.5085,3.5127,3.514,3.5167,3.5177,3.5159,3.5218,3.5228,3.5282,3.53,3.5312,3.5322,3.5301,3.5381,3.5389,3.5396,3.5419,3.5429,3.5313,3.5313,3.5312,3.5312,0,3.5101,3.5135,3.5167,3.5194,3.5213,3.5253,3.5251,3.5271,3.5263,3.5265,3.531,3.5321,3.5348,3.5361,3.5353,3.5413,3.5402,3.5383,3.5349,3.5409,3.5431,3.544,3.5317,3.5316,3.5315,3.5314,0,0,3.52,3.5223,3.5234,3.5245,3.5265,3.529,3.5327,3.5354,3.537,3.5389,3.5418,3.5459,3.5441,3.5455,3.5449,3.5474,3.5531,3.5451,3.5452,3.5464,3.5594,3.5606,3.5617,3.5521,3.5522,3.5524,3.5591,0,3.5273,3.5338,3.5334,3.5395,3.5424,3.5405,3.5437,3.5451,3.5454,3.5478,3.5481,3.5508,3.5484,3.5492,3.5516,3.5519,3.5556,3.5514,3.5545,3.5546,3.5539,3.5629,3.5642,3.5706,3.56,3.5602,3.5603,0,3.5367,3.5389,3.5453,3.5466,3.5478,3.5507,3.553,3.5555,3.557,3.5569,3.5585,3.5574,3.5609,3.5577,3.5624,3.5595,3.5607,3.5611,3.5613,3.5614,3.5577,3.5629,3.5726,3.5734,3.5617,3.5616,3.5615,0,3.5429,3.5475,3.5518,3.5529,3.5546,3.5566,3.5574,3.5588,3.5603,3.5623,3.5632,3.5656,3.5668,3.5686,3.5681,3.5658,3.5728,3.5696,3.5727,3.5727,3.5741,3.5739,3.5838,3.5753,3.5753,3.5753,3.5752,0,3.5509,3.5549,3.5546,3.5573,3.5615,3.5609,3.5651,3.5656,3.5668,3.5694,3.5679,3.5703,3.5696,3.5719,3.5716,3.5753,3.576,3.5759,3.5757,3.5759,3.5759,3.5765,3.576,3.5755,3.5755,3.5754,3.5754,0,3.5585,3.5586,3.5632,3.5644,3.5648,3.5678,3.5688,3.5712,3.5713,3.5746,3.5753,3.5755,3.5781,3.5778,3.5808,3.5806,3.5852,3.5846,3.5847,3.5844,3.5875,3.5871,3.5979,3.5992,3.5901,3.5902,3.5903,0,3.5636,3.5665,3.5681,3.5697,3.5706,3.5733,3.5749,3.5743,3.576,3.5779,3.58,3.5825,3.5845,3.5888,3.5891,3.5913,3.5906,3.5942,3.5909,3.5909,3.5903,3.59,3.5902,3.5948,3.5949,3.595,3.595,0,3.5724,3.5722,3.5746,3.5769,3.5788,3.5806,3.5823,3.5837,3.5832,3.5852,3.5879,3.5894,3.5924,3.5949,3.5969,3.5976,3.5961,3.5961,3.5969,3.597,3.5968,3.5967,3.5862,3.5958,3.5957,3.5957,3.5956,3.5956,3.5786,3.5811,3.5825,3.5851,3.5863,3.5878,3.59,3.5904,3.5927,3.5951,3.5947,3.5976,3.5989,3.6015,3.6024,3.6046,3.6032,3.6045,3.6047,3.605,3.6052,3.5967,3.605,3.605,3.6049,3.6049,3.6049,0,3.5871,3.5879,3.5903,3.5926,3.5946,3.5933,3.595,3.5967,3.5994,3.6007,3.6027,3.6056,3.608,3.6084,3.6106,3.6123,3.6117,3.6128,3.6126,3.6127,3.6064,3.6054,3.6133,3.6133,3.6133,3.6133,3.6133,3.6133,3.5918,3.5957,3.5957,3.6001,3.6009,3.6038,3.6049,3.6062,3.6072,3.6106,3.6126,3.6129,3.6138,3.616,3.618,3.618,3.6188,3.6202,3.62,3.614,3.6132,3.6124,3.6114,3.6204,3.6204,3.626,3.6261,3.6261]}]]